User: anonymous   Login
Location: Unspecified
(0.0000°N, 0.0000°E)
Time: 00:20:59
(UTC+00:00)
Language:

GOES 4 - Orbit

View from above orbital plane
View from above orbital plane
View from above satellite
View from above satellite

Ground track
Ground track

The orbit data is extracted from the following two-line orbital elements,

1 11964U 80074A   17229.68794936 -.00000318  00000-0  00000+0 0  9995
2 11964  14.1243 334.1992 0031295  13.1958 359.5743  0.99232344 95620
Epoch (UTC): 17 August 2017 16:30:38
Eccentricity: 0.0031295
inclination: 14.1243°
perigee height: 35947 km
apogee height: 36213 km
right ascension of ascending node: 334.1992°
argument of perigee: 13.1958°
revolutions per day: 0.99232344
mean anomaly at epoch: 359.5743°
orbit number at epoch: 9562

The dashed part of the orbit path shows where the satellite is in the earth's shadow,  

DLR